�������C�����ː����j�^�v���󋵏��
Date,Time,Cs137(Bq/L),Cs134(Bq/L),�S��(Bq/L)
2020/07/12,00:00,-,-,14
2020/07/12,00:10,-,-,14
2020/07/12,00:20,-,-,17
2020/07/12,00:30,-,-,14
2020/07/12,00:40,-,-,11
2020/07/12,00:50,-,-,13
2020/07/12,01:00,-,-,13
2020/07/12,01:10,-,-,15
2020/07/12,01:20,-,-,12
2020/07/12,01:30,-,-,12
2020/07/12,01:40,-,-,15
2020/07/12,01:50,-,-,15
2020/07/12,02:00,-,-,16
2020/07/12,02:10,-,-,12
2020/07/12,02:20,-,-,13
2020/07/12,02:30,-,-,14
2020/07/12,02:40,-,-,14
2020/07/12,02:50,-,-,14
2020/07/12,03:00,-,-,11
2020/07/12,03:10,-,-,13
2020/07/12,03:20,-,-,12
2020/07/12,03:30,-,-,13
2020/07/12,03:40,-,-,11
2020/07/12,03:50,-,-,10
2020/07/12,04:00,-,-,12
2020/07/12,04:10,-,-,15
2020/07/12,04:20,-,-,15
2020/07/12,04:30,-,-,13
2020/07/12,04:40,-,-,14
2020/07/12,04:50,-,-,13
2020/07/12,05:00,-,-,13
2020/07/12,05:10,-,-,11
2020/07/12,05:20,-,-,12
2020/07/12,05:30,-,-,12
2020/07/12,05:40,-,-,12
2020/07/12,05:50,-,-,14
2020/07/12,06:00,-,-,14
2020/07/12,06:10,-,-,14
2020/07/12,06:20,-,-,12
2020/07/12,06:30,-,-,12
2020/07/12,06:40,-,-,15
2020/07/12,06:50,-,-,13
2020/07/12,07:00,-,-,11
2020/07/12,07:10,-,-,14
2020/07/12,07:20,-,-,18
2020/07/12,07:30,-,-,19
2020/07/12,07:40,-,-,17
2020/07/12,07:50,-,-,19
2020/07/12,08:00,-,-,21
2020/07/12,08:10,-,-,17
2020/07/12,08:20,-,-,12
2020/07/12,08:30,-,-,13
2020/07/12,08:40,-,-,11
2020/07/12,08:50,-,-,11
2020/07/12,09:00,-,-,10
2020/07/12,09:10,-,-,15
2020/07/12,09:20,-,-,18
2020/07/12,09:30,-,-,16
2020/07/12,09:40,-,-,16
2020/07/12,09:50,-,-,14
2020/07/12,10:00,-,-,16
2020/07/12,10:10,-,-,14
2020/07/12,10:20,-,-,13
2020/07/12,10:30,-,-,13
2020/07/12,10:40,-,-,14
2020/07/12,10:50,-,-,15
2020/07/12,11:00,-,-,15
2020/07/12,11:10,-,-,14
2020/07/12,11:20,-,-,13
2020/07/12,11:30,-,-,14
2020/07/12,11:40,-,-,13
2020/07/12,11:50,-,-,13
2020/07/12,12:00,-,-,11
2020/07/12,12:10,-,-,13
2020/07/12,12:20,-,-,13
2020/07/12,12:30,-,-,11
2020/07/12,12:40,-,-,15
2020/07/12,12:50,-,-,15
2020/07/12,13:00,-,-,16
2020/07/12,13:10,-,-,14
2020/07/12,13:20,-,-,13
2020/07/12,13:30,-,-,13
2020/07/12,13:40,-,-,9.3
2020/07/12,13:50,-,-,ND
2020/07/12,14:00,-,-,ND
2020/07/12,14:10,-,-,ND
2020/07/12,14:20,-,-,ND
2020/07/12,14:30,-,-,11
2020/07/12,14:40,-,-,10
2020/07/12,14:50,-,-,12
2020/07/12,15:00,-,-,14
2020/07/12,15:10,-,-,14
2020/07/12,15:20,-,-,14
2020/07/12,15:30,-,-,12
2020/07/12,15:40,-,-,14
2020/07/12,15:50,-,-,15
2020/07/12,16:00,-,-,14
2020/07/12,16:10,-,-,13
2020/07/12,16:20,-,-,12
2020/07/12,16:30,-,-,12
2020/07/12,16:40,-,-,11
2020/07/12,16:50,-,-,13
2020/07/12,17:00,-,-,12
2020/07/12,17:10,-,-,13
2020/07/12,17:20,-,-,16
2020/07/12,17:30,-,-,17
2020/07/12,17:40,-,-,19
2020/07/12,17:50,-,-,18
2020/07/12,18:00,-,-,17
2020/07/12,18:10,-,-,18
2020/07/12,18:20,-,-,17
2020/07/12,18:30,-,-,16
2020/07/12,18:40,-,-,14
2020/07/12,18:50,-,-,12
2020/07/12,19:00,-,-,13
2020/07/12,19:10,-,-,13
2020/07/12,19:20,-,-,13
2020/07/12,19:30,-,-,12
2020/07/12,19:40,-,-,13
2020/07/12,19:50,-,-,13
2020/07/12,20:00,-,-,12
2020/07/12,20:10,-,-,13
2020/07/12,20:20,-,-,9.5
2020/07/12,20:30,-,-,13
2020/07/12,20:40,-,-,13
2020/07/12,20:50,-,-,15
2020/07/12,21:00,-,-,17
2020/07/12,21:10,-,-,14
2020/07/12,21:20,-,-,14
2020/07/12,21:30,-,-,10
2020/07/12,21:40,-,-,8.8
2020/07/12,21:50,-,-,ND
2020/07/12,22:00,-,-,ND
2020/07/12,22:10,-,-,ND
2020/07/12,22:20,-,-,12
2020/07/12,22:30,-,-,14
2020/07/12,22:40,-,-,15
2020/07/12,22:50,-,-,14
2020/07/12,23:00,-,-,15
2020/07/12,23:10,-,-,17
2020/07/12,23:20,-,-,15
2020/07/12,23:30,-,-,12
2020/07/12,23:40,-,-,9.7
2020/07/12,23:50,-,-,ND
